{"data":{"norad_id":68280,"epoch":"2026-09-20T02:14:05.995680Z","epoch_age_seconds":86100,"freshness":"FRESH","line1":"1 68280U 26055U   26263.09312495  .00021275  00000+0  63871-3 0  9998","line2":"2 68280  53.1591 131.3846 0000679  88.8107 271.2973 15.34414409 29760","mean_motion":15.34414409,"eccentricity":6.79e-5,"inclination_deg":53.1591,"raan_deg":131.3846,"arg_perigee_deg":88.8107,"mean_anomaly_deg":271.2973,"bstar":0.00063871,"rev_number":2976,"period_min":93.846876798978,"perigee_km":462.19592381328,"apogee_km":463.12490410209,"semimajor_km":6840.7974139577,"source":"CELESTRAK","updated_at":"2026-09-20T09:00:43.849889Z"}}